Regional Weather Roundup
Issued by NWS New Orleans/Baton Rouge, LA

Home | Current Version | Previous Version | Text Only | Print | Product List | Glossary On
Versions: 1 2 3 4 5 6 7 8 9 10 11 12 13 14 15 16 17 18 19 20 21 22 23 24 25 26 27 28 29 30 31 32 33 34 35 36 37 38 39 40 41 42 43 44 45 46 47 48 49 50
144
ASUS44 KLIX 220710
RWRLIX
NEW ORLEANS REGIONAL WEATHER ROUNDUP
NATIONAL WEATHER SERVICE NEW ORLEANS LA
200 AM CDT WED OCT 22 2014

NOTE: "FAIR" INDICATES FEW OR NO CLOUDS BELOW 12,000 FEET WITH NO
      SIGNIFICANT WEATHER AND/OR OBSTRUCTIONS TO VISIBILITY.
      SKY/WX - SKY CONDITION AND SIGNIFICANT WEATHER.
      TMP - AIR TEMPERATURE.     DP    - DEWPOINT TEMPERATURE.
      RH  - RELATIVE HUMIDITY.   PRES  - PRESSURE.
      HI  - HEAT INDEX.          WCI   - WIND CHILL INDEX.

*  THESE STATIONS ARE NOT NWS OR FAA STATIONS AND ARE NOT UNDER
   NWS QUALITY CONTROL.

LAZ038-040-048-061>063-065>067-069-220800-
SOUTHEAST LOUISIANA

CITY           SKY/WX    TMP DP  RH WIND       PRES   REMARKS
N.O. AUDUBON     N/A     65  61  86 MISG        N/A
N.O. INTL ARPT PTCLDY    64  57  78 NE6       30.02S
N.O. LAKEFRONT CLEAR     71  61  70 NE14      30.02S
N.O. DOWNTOWN*   N/A     70  55  60 NE5       30.02S
SLIDELL        CLEAR     55  52  89 CALM      30.02S
BATON ROUGE    CLEAR     61  57  87 N3        30.04R
BOOTHVILLE     CLEAR     69  64  84 N3        30.01S
BELLE CHASSE   CLEAR     57  53  86 CALM      30.02R
BOGALUSA*        N/A     53  49  89 CALM      30.05S
NEW ROADS*       N/A     61  58  90 N3        30.05R
GONZALES*        N/A     59  59 100 CALM      30.03R
HAMMOND*       CLEAR     61  55  82 N5        30.04F
HOUMA*         CLEAR     57  56  97 CALM      30.02S
PORT FOURCHON* SUNNY     70  64  83 N5        30.03F

$$

MSZ070-080>082-220800-
SOUTHERN MISSISSIPPI

CITY           SKY/WX    TMP DP  RH WIND       PRES   REMARKS
MCCOMB         CLEAR     58  54  86 CALM      30.05F
GULFPORT       CLEAR     58  55  90 CALM      30.01F
BILOXI         CLEAR     61  56  84 NE5       30.01F
PASCAGOULA     CLEAR     50  49  96 N5        30.02S

$$

COASTAL OBSERVATIONS
LAKE AND NEARSHORE STATIONS

STATION/POSITION TIME  TEMP    WIND        PRES    WAVE
                       AIR SEA DIR/SP/G            HT/PER
                 (UTC) (F)     (DEG/KT/KT) (MB)    (FT/S)
PASCAGOULA       0700   62      10/  6/  8 1015.6
WAVELAND YACHT   0700   67      30/ 10/ 12 1015.6
GRAND ISLE       0700   71 75   60/  5/  7 1016.5
SOUTHWEST PASS   0700   74 83              1015.8
NEW CANAL        0700   71 72   50/ 10/ 11 1016.8
SHELL BEACH      0700   72 70   30/ 11/ 12 1016.1

OFFSHORE STATIONS

STATION/POSITION TIME  TEMP    WIND        PRES    WAVE
                       AIR SEA DIR/SP/G            HT/PER
                 (UTC) (F)     (DEG/KT/KT) (MB)    (FT/S)
64 S DAUPHIN ISL 0555   76 79   40/ 12/ 14 1016.0    2/ 4

$$




USA.gov is the U.S. government's official web portal to all federal, state and local government web resources and services.